| time (UTC) | temp F | wind direction | speed MPH | gust MPH | rain 1hr in | rain 24hr in | rain mn in | humidity % | barometer mb |
| 20260903111625 | 61 | 0.0 | 0.0 | 0.00 | 0.02 | 0.02 | 98 | 1015.9 | |
| 20260903110110 | 60 | 0.0 | 0.0 | 0.00 | 0.02 | 0.02 | 98 | 1015.8 | |
| 20260903104633 | 59 | 0.0 | 0.0 | 0.00 | 0.02 | 0.02 | 98 | 1015.8 | |
| 20260903103102 | 58 | 0.0 | 0.0 | 0.01 | 0.02 | 0.02 | 98 | 1015.8 | |
| 20260903101600 | 57 | 0.0 | 0.0 | 0.02 | 0.02 | 0.02 | 98 | 1015.6 | |
| 20260903100106 | 57 | 0.0 | 0.0 | 0.02 | 0.02 | 0.02 | 98 | 1015.8 | |
| 20260903094608 | 57 | 0.0 | 0.0 | 0.02 | 0.02 | 0.02 | 98 | 1015.7 | |
| 20260903093100 | 57 | 0.0 | 0.0 | 0.01 | 0.01 | 0.01 | 98 | 1015.9 | |
| 20260903091604 | 57 | 0.0 | 0.0 | 0.00 | 0.00 | 0.00 | 98 | 1015.9 | |
| 20260903090104 | 57 | 0.0 | 0.0 | 0.00 | 0.00 | 0.00 | 98 | 1016.0 | |
| 20260903084603 | 57 | 0.0 | 0.0 | 0.00 | 0.00 | 0.00 | 97 | 1016.1 | |
| 20260903083058 | 57 | 0.0 | 0.0 | 0.00 | 0.00 | 0.00 | 97 | 1016.3 | |
| 20260903081603 | 57 | 0.0 | 0.0 | 0.00 | 0.00 | 0.00 | 97 | 1016.4 | |
| 20260903080100 | 57 | 0.0 | 0.0 | 0.00 | 0.00 | 0.00 | 97 | 1016.3 | |
| 20260903074603 | 57 | 0.0 | 0.0 | 0.00 | 0.00 | 0.00 | 97 | 1016.4 | |
| 20260903073111 | 57 | 0.0 | 0.0 | 0.00 | 0.00 | 0.00 | 97 | 1016.5 | |
| 20260903071603 | 57 | 0.0 | 0.0 | 0.00 | 0.00 | 0.00 | 97 | 1016.5 | |
| 20260903070106 | 57 | 0.0 | 0.0 | 0.00 | 0.00 | 0.00 | 97 | 1016.5 | |
| 20260903064559 | 57 | 0.0 | 0.0 | 0.00 | 0.00 | 0.00 | 97 | 1016.7 | |
| 20260903063102 | 57 | 0.0 | 0.0 | 0.00 | 0.00 | 0.00 | 96 | 1016.8 | |
| 20260903061610 | 57 | 0.0 | 0.0 | 0.00 | 0.00 | 0.00 | 96 | 1017.2 | |
| 20260903054600 | 57 | 0.0 | 0.0 | 0.00 | 0.00 | 0.00 | 95 | 1017.5 | |
| 20260903053110 | 57 | 0.0 | 0.0 | 0.00 | 0.00 | 0.00 | 94 | 1017.8 | |
| 20260903051603 | 58 | 0.0 | 0.0 | 0.00 | 0.00 | 0.00 | 93 | 1018.1 | |
| 20260903050107 | 58 | 0.0 | 0.0 | 0.00 | 0.00 | 0.00 | 92 | 1018.0 | |
| 20260903044608 | 58 | 0.0 | 0.0 | 0.00 | 0.00 | 0.00 | 92 | 1018.0 | |
| 20260903043128 | 58 | 0.0 | 0.0 | 0.00 | 0.00 | 0.00 | 91 | 1017.7 | |
| 20260903041602 | 58 | 0.0 | 0.0 | 0.00 | 0.00 | 0.00 | 90 | 1017.8 | |
| 20260903040109 | 58 | 0.0 | 0.0 | 0.00 | 0.00 | 0.00 | 89 | 1018.3 | |
| 20260903034603 | 58 | 0.0 | 0.0 | 0.00 | 0.00 | 0.00 | 88 | 1018.4 | |
| 20260903033103 | 58 | 0.0 | 0.0 | 0.00 | 0.00 | 0.00 | 88 | 1018.5 | |
| 20260903031619 | 59 | 0.0 | 0.0 | 0.00 | 0.00 | 0.00 | 89 | 1018.6 | |
| 20260903030116 | 59 | 0.0 | 0.0 | 0.00 | 0.00 | 0.00 | 91 | 1018.8 | |
| 20260903024608 | 59 | 0.0 | 0.0 | 0.00 | 0.01 | 0.00 | 91 | 1018.8 | |
| 20260903023103 | 59 | 0.0 | 0.0 | 0.00 | 0.01 | 0.00 | 91 | 1019.1 | |
| 20260903021601 | 59 | 0.0 | 0.0 | 0.00 | 0.01 | 0.00 | 92 | 1019.3 | |
| 20260903020100 | 59 | 0.0 | 0.0 | 0.00 | 0.01 | 0.00 | 91 | 1019.4 | |
| 20260903014612 | 59 | 0.0 | 0.0 | 0.00 | 0.01 | 0.00 | 91 | 1019.8 | |
| 20260903013104 | 59 | 0.0 | 0.0 | 0.00 | 0.01 | 0.00 | 91 | 1020.1 | |
| 20260903011609 | 60 | 0.0 | 0.0 | 0.00 | 0.01 | 0.00 | 91 | 1019.9 | |
| 20260903010118 | 60 | 0.0 | 0.0 | 0.00 | 0.01 | 0.00 | 93 | 1019.9 | |
| 20260903004600 | 60 | 0.0 | 0.0 | 0.00 | 0.02 | 0.00 | 94 | 1019.9 | |
| 20260903003105 | 60 | 0.0 | 0.0 | 0.00 | 0.02 | 0.00 | 93 | 1019.7 | |
| 20260903001601 | 59 | 0.0 | 0.0 | 0.00 | 0.02 | 0.00 | 93 | 1019.2 | |
| 20260903000104 | 60 | 0.0 | 0.0 | 0.00 | 0.02 | 0.00 | 93 | 1019.2 | |
| 20260902234605 | 60 | 0.0 | 0.0 | 0.00 | 0.02 | 0.00 | 93 | 1019.7 | |
| 20260902233103 | 60 | 0.0 | 0.0 | 0.00 | 0.02 | 0.00 | 92 | 1019.9 | |
| 20260902231611 | 60 | 0.0 | 0.0 | 0.00 | 0.02 | 0.00 | 92 | 1020.1 | |
| 20260902230105 | 61 | 0.0 | 0.0 | 0.00 | 0.02 | 0.00 | 92 | 1020.6 | |
| 20260902224606 | 61 | 0.0 | 0.0 | 0.00 | 0.02 | 0.00 | 92 | 1020.8 | |
| 20260902223059 | 61 | 0.0 | 0.0 | 0.00 | 0.02 | 0.00 | 92 | 1021.0 | |
| 20260902221623 | 61 | 0.0 | 0.0 | 0.00 | 0.02 | 0.00 | 91 | 1021.1 | |
| 20260902220100 | 61 | 0.0 | 0.0 | 0.00 | 0.02 | 0.00 | 91 | 1021.1 | |
| 20260902214601 | 61 | 0.0 | 0.0 | 0.00 | 0.03 | 0.00 | 90 | 1021.3 | |
| 20260902213100 | 61 | 0.0 | 0.0 | 0.00 | 0.03 | 0.00 | 91 | 1021.2 | |
| 20260902211558 | 61 | 0.0 | 0.0 | 0.00 | 0.03 | 0.00 | 91 | 1021.3 | |
| 20260902204601 | 61 | 0.0 | 0.0 | 0.00 | 0.03 | 0.00 | 91 | 1021.1 | |
| 20260902203100 | 61 | 0.0 | 0.0 | 0.00 | 0.03 | 0.00 | 91 | 1021.4 | |
| 20260902201601 | 61 | 0.0 | 0.0 | 0.00 | 0.03 | 0.00 | 90 | 1021.0 | |
| 20260902194605 | 61 | 0.0 | 0.0 | 0.00 | 0.03 | 0.00 | 89 | 1021.7 | |
| 20260902193108 | 61 | 0.0 | 0.0 | 0.00 | 0.03 | 0.00 | 90 | 1021.6 | |
| 20260902191634 | 61 | 0.0 | 0.0 | 0.00 | 0.03 | 0.00 | 90 | 1021.7 | |
| 20260902184600 | 61 | 0.0 | 0.0 | 0.00 | 0.03 | 0.00 | 90 | 1021.7 | |
| 20260902183124 | 60 | 0.0 | 0.0 | 0.00 | 0.03 | 0.00 | 91 | 1021.8 | |
| 20260902181612 | 60 | 0.0 | 0.0 | 0.00 | 0.03 | 0.00 | 90 | 1022.0 | |
| 20260902180104 | 60 | 0.0 | 0.0 | 0.00 | 0.03 | 0.00 | 90 | 1021.7 | |
| 20260902174604 | 60 | 0.0 | 0.0 | 0.00 | 0.07 | 0.00 | 90 | 1021.8 | |
| 20260902173114 | 60 | 0.0 | 0.0 | 0.00 | 0.07 | 0.00 | 90 | 1021.9 | |
| 20260902171618 | 61 | 0.0 | 0.0 | 0.00 | 0.07 | 0.00 | 89 | 1022.0 | |
| 20260902164606 | 60 | 0.0 | 0.0 | 0.00 | 0.10 | 0.00 | 87 | 1022.2 | |
| 20260902163105 | 60 | 0.0 | 0.0 | 0.00 | 0.10 | 0.00 | 87 | 1022.2 | |
| 20260902161605 | 60 | 0.0 | 0.0 | 0.00 | 0.10 | 0.00 | 88 | 1022.1 | |
| 20260902160106 | 60 | 0.0 | 0.0 | 0.00 | 0.10 | 0.00 | 89 | 1022.3 | |
| 20260902154601 | 59 | 0.0 | 0.0 | 0.00 | 0.22 | 0.00 | 86 | 1022.5 | |
| 20260902153059 | 59 | 0.0 | 0.0 | 0.00 | 0.22 | 0.00 | 91 | 1022.6 | |
| 20260902151600 | 58 | 0.0 | 0.0 | 0.00 | 0.22 | 0.00 | 91 | 1022.7 | |
| 20260902144600 | 57 | 0.0 | 0.0 | 0.00 | 0.23 | 0.00 | 94 | 1022.9 | |
| 20260902143058 | 57 | 0.0 | 0.0 | 0.00 | 0.23 | 0.00 | 93 | 1022.9 | |
| 20260902141600 | 57 | 0.0 | 0.0 | 0.00 | 0.23 | 0.00 | 93 | 1022.8 | |
| 20260902140100 | 57 | 0.0 | 0.0 | 0.00 | 0.23 | 0.00 | 93 | 1022.5 | |
| 20260902134558 | 57 | 0.0 | 0.0 | 0.00 | 0.25 | 0.00 | 93 | 1022.6 | |
| 20260902133105 | 57 | 0.0 | 0.0 | 0.00 | 0.25 | 0.00 | 93 | 1022.3 | |
| 20260902131602 | 56 | 0.0 | 0.0 | 0.00 | 0.25 | 0.00 | 93 | 1022.1 | |
| 20260902124643 | 56 | 0.0 | 0.0 | 0.00 | 0.25 | 0.00 | 95 | 1022.2 | |
| 20260902123101 | 55 | 0.0 | 0.0 | 0.00 | 0.25 | 0.00 | 95 | 1022.1 | |
| 20260902121600 | 55 | 0.0 | 0.0 | 0.00 | 0.25 | 0.00 | 96 | 1022.1 | |
| 20260902120105 | 55 | 0.0 | 0.0 | 0.00 | 0.25 | 0.00 | 96 | 1022.1 | |
| 20260902114557 | 55 | 0.0 | 0.0 | 0.00 | 0.36 | 0.00 | 97 | 1022.1 | |
| 20260902113103 | 54 | 0.0 | 0.0 | 0.00 | 0.36 | 0.00 | 97 | 1022.2 |